Location: Iwkowa
(49.8210°N, 20.5761°E)
Time: 19:27:38
(UTC+01:00)

ISS - Visible Passes

Search period start: 22 February 2018 00:00
Search period end: 04 March 2018 00:00
Orbit: 402 x 407 km, 51.6° (Epoch: 23 February)

Date Brightness Start Highest point End Pass type
(mag) Time Alt. Az. Time Alt. Az. Time Alt. Az.
27 Feb -1.1 05:34:03 10° S 05:36:22 18° SE 05:38:42 10° E visible
28 Feb -0.8 04:43:18 10° SSE 04:44:19 11° SE 04:45:21 10° ESE visible
01 Mar -2.3 05:25:01 10° SSW 05:27:59 33° SSE 05:30:59 10° E visible
02 Mar -1.6 04:34:05 14° S 04:35:50 21° SE 04:38:24 10° E visible
03 Mar -1.0 03:44:04 13° SE 03:44:04 13° SE 03:45:24 10° ESE visible
03 Mar -3.4 05:16:44 12° SW 05:19:40 58° SSE 05:22:55 10° ENE visible
